Terug naar catalogus

TEVEL2-8

ActiefAmateurradioSSO
NORAD 63239·PAYLOAD·🇮🇱 Israel

Gelanceerd Mar 15, 2025 vanaf Vandenberg Space Force Base

Loading…

Volgende Passages (komende 24 uur)

TLE

VersSource: Space-Track

Epoch: Sep 14, 2026, 12:13 UTC

1 63239U 25052AF  26257.50920075  .00013336  00000-0  40679-3 0  9992
2 63239  97.3801 152.6084 0006101 163.8267 196.3172 15.34042962 83703

Volg TEVEL2-8 in realtime met AllMySat

Download on the App Store